TimeMDT,TemperatureF,Dew PointF,Humidity,Sea Level PressureIn,VisibilityMPH,Wind Direction,Wind SpeedMPH,Gust SpeedMPH,PrecipitationIn,Events,Conditions,WindDirDegrees,DateUTC
12:14 AM,35.6,28.4,75,30.18,10.0,West,6.9,-,N/A,,Clear,260,2013-03-30 06:14:00
12:34 AM,35.6,28.4,75,30.17,10.0,West,6.9,-,N/A,,Clear,270,2013-03-30 06:34:00
12:54 AM,33.8,28.4,81,30.17,10.0,West,5.8,-,N/A,,Clear,270,2013-03-30 06:54:00
1:13 AM,35.6,28.4,75,30.18,10.0,WSW,6.9,-,N/A,,Clear,250,2013-03-30 07:13:00
1:34 AM,33.8,28.4,81,30.18,10.0,WSW,5.8,-,N/A,,Clear,240,2013-03-30 07:34:00
1:54 AM,37.4,28.4,70,30.17,10.0,SW,6.9,-,N/A,,Clear,230,2013-03-30 07:54:00
2:14 AM,35.6,26.6,70,30.16,10.0,SW,5.8,-,N/A,,Clear,230,2013-03-30 08:14:00
2:34 AM,37.4,26.6,65,30.16,10.0,WSW,4.6,-,N/A,,Clear,240,2013-03-30 08:34:00
2:54 AM,37.4,26.6,65,30.16,10.0,SW,11.5,-,N/A,,Clear,230,2013-03-30 08:54:00
3:14 AM,35.6,26.6,70,30.16,10.0,SW,5.8,-,N/A,,Clear,230,2013-03-30 09:14:00
3:34 AM,37.4,24.8,60,30.16,10.0,SW,8.1,-,N/A,,Clear,230,2013-03-30 09:34:00
3:54 AM,37.4,24.8,60,30.15,10.0,SW,8.1,-,N/A,,Clear,230,2013-03-30 09:54:00
4:14 AM,35.6,26.6,70,30.15,10.0,WSW,6.9,-,N/A,,Clear,240,2013-03-30 10:14:00
4:33 AM,35.6,26.6,70,30.16,10.0,SW,11.5,-,N/A,,Clear,230,2013-03-30 10:33:00
4:54 AM,37.4,24.8,60,30.15,10.0,SW,10.4,-,N/A,,Clear,230,2013-03-30 10:54:00
5:14 AM,33.8,26.6,75,30.15,10.0,WSW,9.2,-,N/A,,Clear,240,2013-03-30 11:14:00
5:34 AM,33.8,26.6,75,30.15,10.0,WSW,6.9,-,N/A,,Clear,240,2013-03-30 11:34:00
5:54 AM,35.6,26.6,70,30.16,10.0,SW,6.9,-,N/A,,Clear,230,2013-03-30 11:54:00
6:14 AM,35.6,26.6,70,30.16,10.0,WSW,5.8,-,N/A,,Clear,240,2013-03-30 12:14:00
6:34 AM,35.6,24.8,65,30.16,10.0,WSW,4.6,-,N/A,,Clear,240,2013-03-30 12:34:00
6:54 AM,35.6,24.8,65,30.16,10.0,West,5.8,-,N/A,,Clear,260,2013-03-30 12:54:00
7:14 AM,37.4,26.6,65,30.17,10.0,WSW,5.8,-,N/A,,Clear,240,2013-03-30 13:14:00
7:34 AM,41.0,26.6,57,30.17,10.0,WSW,4.6,-,N/A,,Clear,240,2013-03-30 13:34:00
7:54 AM,42.8,26.6,53,30.17,10.0,SW,4.6,-,N/A,,Clear,230,2013-03-30 13:54:00
8:14 AM,42.8,28.4,57,30.17,10.0,WSW,4.6,-,N/A,,Clear,240,2013-03-30 14:14:00
8:34 AM,44.6,28.4,53,30.17,10.0,WSW,4.6,-,N/A,,Clear,240,2013-03-30 14:34:00
8:54 AM,46.4,28.4,50,30.17,10.0,WSW,3.5,-,N/A,,Clear,240,2013-03-30 14:54:00
9:14 AM,50.0,26.6,40,30.17,10.0,NW,8.1,-,N/A,,Clear,310,2013-03-30 15:14:00
9:34 AM,50.0,26.6,40,30.16,10.0,WNW,9.2,-,N/A,,Clear,300,2013-03-30 15:34:00
9:54 AM,51.8,23.0,33,30.15,10.0,WNW,6.9,-,N/A,,Clear,290,2013-03-30 15:54:00
10:14 AM,51.8,23.0,33,30.15,10.0,West,4.6,-,N/A,,Clear,270,2013-03-30 16:14:00
10:34 AM,51.8,23.0,33,30.15,10.0,NNE,5.8,-,N/A,,Clear,20,2013-03-30 16:34:00
10:53 AM,53.6,23.0,30,30.14,10.0,North,5.8,-,N/A,,Clear,360,2013-03-30 16:53:00
11:13 AM,53.6,23.0,30,30.14,10.0,Calm,Calm,-,N/A,,Clear,0,2013-03-30 17:13:00
11:34 AM,53.6,23.0,30,30.13,10.0,East,3.5,-,N/A,,Clear,90,2013-03-30 17:34:00
11:54 AM,55.4,23.0,29,30.13,10.0,North,3.5,-,N/A,,Clear,360,2013-03-30 17:54:00
12:14 PM,55.4,23.0,29,30.12,10.0,West,8.1,-,N/A,,Clear,260,2013-03-30 18:14:00
12:34 PM,57.2,23.0,27,30.11,10.0,NNW,4.6,-,N/A,,Clear,330,2013-03-30 18:34:00
12:54 PM,57.2,23.0,27,30.10,10.0,NNW,6.9,23.0,N/A,,Scattered Clouds,330,2013-03-30 18:54:00
1:14 PM,57.2,23.0,27,30.10,10.0,NW,10.4,16.1,N/A,,Scattered Clouds,310,2013-03-30 19:14:00
1:34 PM,59.0,21.2,23,30.09,10.0,West,5.8,-,N/A,,Scattered Clouds,280,2013-03-30 19:34:00
1:54 PM,60.8,21.2,22,30.09,10.0,WNW,13.8,20.7,N/A,,Scattered Clouds,290,2013-03-30 19:54:00
2:14 PM,57.2,23.0,27,30.08,10.0,North,10.4,-,N/A,,Scattered Clouds,360,2013-03-30 20:14:00
2:34 PM,55.4,21.2,26,30.07,10.0,NNW,4.6,9.2,N/A,,Scattered Clouds,340,2013-03-30 20:34:00
2:54 PM,59.0,21.2,23,30.07,10.0,North,5.8,18.4,N/A,,Scattered Clouds,360,2013-03-30 20:54:00
3:14 PM,59.0,21.2,23,30.07,10.0,NNW,6.9,-,N/A,,Mostly Cloudy,340,2013-03-30 21:14:00
3:34 PM,60.8,21.2,22,30.07,10.0,NNW,13.8,17.3,N/A,,Scattered Clouds,340,2013-03-30 21:34:00
3:54 PM,59.0,21.2,23,30.06,10.0,North,6.9,20.7,N/A,,Scattered Clouds,360,2013-03-30 21:54:00
4:14 PM,55.4,19.4,25,30.06,10.0,NW,10.4,18.4,N/A,,Scattered Clouds,320,2013-03-30 22:14:00
4:34 PM,59.0,21.2,23,30.06,10.0,NNW,16.1,24.2,N/A,,Clear,340,2013-03-30 22:34:00
4:53 PM,57.2,21.2,25,30.07,10.0,North,13.8,-,N/A,,Clear,350,2013-03-30 22:53:00
5:13 PM,55.4,21.2,26,30.07,10.0,North,13.8,21.9,N/A,,Scattered Clouds,360,2013-03-30 23:13:00
5:34 PM,53.6,24.8,33,30.08,10.0,North,19.6,32.2,N/A,,Mostly Cloudy,10,2013-03-30 23:34:00
5:54 PM,50.0,30.2,47,30.10,10.0,NE,24.2,31.1,N/A,,Mostly Cloudy,40,2013-03-30 23:54:00
6:13 PM,44.6,33.8,66,30.12,10.0,NE,18.4,28.8,N/A,,Mostly Cloudy,40,2013-03-31 00:13:00
6:34 PM,42.8,33.8,70,30.13,10.0,ENE,19.6,26.5,N/A,,Mostly Cloudy,60,2013-03-31 00:34:00
6:53 PM,42.8,32.0,66,30.15,10.0,NNE,12.7,17.3,N/A,,Scattered Clouds,30,2013-03-31 00:53:00
7:14 PM,41.0,33.8,76,30.16,10.0,NE,10.4,16.1,N/A,,Scattered Clouds,40,2013-03-31 01:14:00
7:34 PM,41.0,32.0,70,30.19,10.0,NE,11.5,18.4,N/A,,Mostly Cloudy,40,2013-03-31 01:34:00
7:54 PM,39.2,33.8,81,30.20,10.0,NNE,12.7,23.0,N/A,,Mostly Cloudy,30,2013-03-31 01:54:00
8:14 PM,37.4,33.8,87,30.21,10.0,North,15.0,20.7,N/A,,Overcast,360,2013-03-31 02:14:00
8:34 PM,37.4,33.8,87,30.23,10.0,North,15.0,19.6,N/A,Rain,Light Rain,10,2013-03-31 02:34:00
8:54 PM,35.6,33.8,93,30.23,10.0,North,8.1,-,N/A,,Light Drizzle,10,2013-03-31 02:54:00
9:14 PM,35.6,33.8,93,30.23,10.0,North,10.4,16.1,N/A,,Overcast,10,2013-03-31 03:14:00
9:34 PM,35.6,33.8,93,30.23,10.0,North,6.9,-,N/A,,Overcast,10,2013-03-31 03:34:00
9:54 PM,33.8,32.0,93,30.23,10.0,NNW,6.9,-,N/A,,Scattered Clouds,340,2013-03-31 03:54:00
10:14 PM,33.8,32.0,93,30.23,10.0,NNW,6.9,-,N/A,,Mostly Cloudy,330,2013-03-31 04:14:00
10:34 PM,33.8,32.0,93,30.24,10.0,NNW,6.9,-,N/A,,Mostly Cloudy,340,2013-03-31 04:34:00
10:54 PM,33.8,33.8,100,30.24,10.0,North,6.9,-,N/A,,Overcast,360,2013-03-31 04:54:00
11:14 PM,33.8,32.0,93,30.23,10.0,North,5.8,-,N/A,,Mostly Cloudy,350,2013-03-31 05:14:00
11:34 PM,33.8,32.0,93,30.23,10.0,NNW,5.8,-,N/A,,Mostly Cloudy,340,2013-03-31 05:34:00
11:54 PM,33.8,32.0,93,30.23,10.0,NNW,4.6,-,N/A,,Mostly Cloudy,330,2013-03-31 05:54:00